Hebron, NE

1:24 PM CDT on March 24, 2017 (GMT -0500)
Hebron Municipal

Weather History for KHJH - December, 2012

Change the Weather History Date:

Sunday, December 16, 2012

  Actual Average Record
Temperature  
Mean Temperature 32 °F -  
Max Temperature 36 °F 36 °F 60 °F (1980)
Min Temperature 28 °F 16 °F -17 °F (1989)
Degree Days  
Heating Degree Days 33    
Moisture  
Dew Point 30 °F    
Average Humidity 90    
Maximum Humidity 98    
Minimum Humidity 83    
Precipitation  
Precipitation 0.00 in - - ()
Sea Level Pressure  
Sea Level Pressure 29.76 in    
Wind  
Wind Speed 4 mph (North)    
Max Wind Speed 12 mph    
Max Gust Speed -    
Visibility 9 miles    
Events      
Averages and records for this station are not official NWS values.
T = Trace of Precipitation, MM = Missing Value Source: NWS Daily Summary

Daily Weather History Graph

Daily Weather History Graph

Search for Another Location

Airport or City:

Trip Planner

Search our weather history database for the weather conditions in past years. The results will help you decide how hot, cold, wet, or windy it might be!

Date:

Astronomy

Dec. 16, 2012 Rise Set
Actual Time 7:46 AM CST 5:06 PM CST
Civil Twilight 7:15 AM CST 5:36 PM CST
Nautical Twilight 6:41 AM CST 6:10 PM CST
Astronomical Twilight 6:08 AM CST 6:43 PM CST
Moon 10:20 AM CST (12/16) 9:21 PM CST (12/16)
Length of Visible Light 10h 20m
Length of Day
9h 19m
Waxing Crescent, 16% of the Moon is Illuminated
Dec 16
Waxing Crescent
Dec 19
First Quarter
Dec 28
Full
Jan 4
Last Quarter
Jan 11
New

Hourly Weather History & Observations

Time (CST) Temp. Windchill Dew Point Humidity Pressure Visibility Wind Dir Wind Speed Gust Speed Precip Events Conditions
12:15 AM 32.5 °F 27.1 °F 32.0 °F 98% 29.75 in 4.0 mi West 5.8 mph - N/A   Scattered Clouds
12:55 AM 33.8 °F 27.7 °F 32.0 °F 93% 29.74 in 7.0 mi NW 6.9 mph - N/A   Mostly Cloudy
1:15 AM 34.2 °F 30.0 °F 31.1 °F 89% 29.74 in 10.0 mi NNW 4.6 mph - N/A   Scattered Clouds
1:35 AM 33.3 °F 27.9 °F 30.7 °F 90% 29.74 in 10.0 mi NNW 5.8 mph - N/A   Scattered Clouds
1:55 AM 32.5 °F 28.1 °F 30.4 °F 92% 29.73 in 7.0 mi NNW 4.6 mph - N/A   Scattered Clouds
2:15 AM 32.0 °F 27.5 °F 30.2 °F 93% 29.74 in 7.0 mi NW 4.6 mph - N/A   Clear
2:35 AM 31.8 °F - 29.8 °F 92% 29.75 in 7.0 mi Calm Calm - N/A   Scattered Clouds
2:55 AM 31.6 °F 27.0 °F 29.7 °F 92% 29.75 in 7.0 mi NW 4.6 mph - N/A   Clear
3:15 AM 31.5 °F 28.1 °F 29.3 °F 92% 29.76 in 7.0 mi WNW 3.5 mph - N/A   Clear
3:55 AM 30.0 °F - 28.4 °F 94% 29.75 in 7.0 mi Calm Calm - N/A   Clear
4:15 AM 30.2 °F - 28.6 °F 94% 29.75 in 7.0 mi Calm Calm - N/A   Mostly Cloudy
4:35 AM 30.7 °F 26.0 °F 28.6 °F 92% 29.76 in 7.0 mi NNW 4.6 mph - N/A   Overcast
4:55 AM 31.1 °F - 28.2 °F 89% 29.76 in 10.0 mi Calm Calm - N/A   Overcast
5:15 AM 31.1 °F - 28.0 °F 88% 29.76 in 10.0 mi Calm Calm - N/A   Overcast
5:35 AM 31.1 °F - 28.0 °F 88% 29.76 in 10.0 mi Calm Calm - N/A   Overcast
5:55 AM 31.1 °F - 28.2 °F 89% 29.77 in 10.0 mi Calm Calm - N/A   Overcast
6:15 AM 31.1 °F 26.4 °F 28.4 °F 90% 29.77 in 10.0 mi NW 4.6 mph - N/A   Overcast
6:35 AM 31.1 °F 27.7 °F 28.4 °F 90% 29.76 in 10.0 mi NW 3.5 mph - N/A   Overcast
7:15 AM 30.7 °F 27.3 °F 28.0 °F 90% 29.76 in 10.0 mi NW 3.5 mph - N/A   Mostly Cloudy
7:35 AM 30.2 °F 26.7 °F 28.2 °F 92% 29.77 in 10.0 mi NNW 3.5 mph - N/A   Overcast
7:55 AM 30.7 °F 27.3 °F 27.5 °F 88% 29.76 in 10.0 mi North 3.5 mph - N/A   Scattered Clouds
8:15 AM 30.6 °F - 27.9 °F 90% 29.76 in 7.0 mi Calm Calm - N/A   Scattered Clouds
8:35 AM 31.1 °F 27.7 °F 28.2 °F 89% 29.77 in 7.0 mi North 3.5 mph - N/A   Mostly Cloudy
8:55 AM 31.6 °F 28.3 °F 28.0 °F 87% 29.77 in 7.0 mi North 3.5 mph - N/A   Scattered Clouds
9:15 AM 32.4 °F 25.3 °F 28.8 °F 87% 29.77 in 10.0 mi NNE 8.1 mph - N/A   Mostly Cloudy
9:35 AM 32.5 °F 24.2 °F 29.1 °F 87% 29.77 in 10.0 mi North 10.4 mph - N/A   Overcast
9:55 AM 32.7 °F 23.9 °F 29.3 °F 87% 29.78 in 10.0 mi North 11.5 mph - N/A   Overcast
10:15 AM 32.5 °F 24.8 °F 29.7 °F 89% 29.78 in 10.0 mi NNW 9.2 mph - N/A   Overcast
10:35 AM 32.7 °F 25.0 °F 29.7 °F 88% 29.78 in 10.0 mi North 9.2 mph - N/A   Overcast
10:55 AM 33.1 °F 25.5 °F 29.8 °F 88% 29.78 in 10.0 mi NNE 9.2 mph - N/A   Overcast
11:15 AM 33.3 °F 25.1 °F 29.8 °F 87% 29.77 in 10.0 mi North 10.4 mph - N/A   Overcast
11:35 AM 34.0 °F 28.0 °F 30.7 °F 88% 29.77 in 10.0 mi North 6.9 mph - N/A   Overcast
11:55 AM 34.7 °F 29.6 °F 30.9 °F 86% 29.77 in 10.0 mi NNE 5.8 mph - N/A   Overcast
12:15 PM 35.1 °F 30.1 °F 31.5 °F 87% 29.76 in 10.0 mi NNE 5.8 mph - N/A   Overcast
12:35 PM 35.6 °F 29.9 °F 31.5 °F 85% 29.74 in 10.0 mi North 6.9 mph - N/A   Overcast
12:55 PM 35.6 °F 28.6 °F 31.5 °F 85% 29.73 in 10.0 mi North 9.2 mph - N/A   Overcast
1:15 PM 35.6 °F 28.6 °F 31.5 °F 85% 29.71 in 10.0 mi North 9.2 mph - N/A   Overcast
1:35 PM 35.8 °F 28.8 °F 31.6 °F 85% 29.71 in 10.0 mi NNE 9.2 mph - N/A   Overcast
1:55 PM 35.6 °F 28.6 °F 31.5 °F 85% 29.71 in 10.0 mi North 9.2 mph - N/A   Mostly Cloudy
2:15 PM 36.1 °F 29.9 °F 31.8 °F 84% 29.71 in 10.0 mi North 8.1 mph - N/A   Mostly Cloudy
2:35 PM 36.7 °F 32.0 °F 32.0 °F 83% 29.73 in 10.0 mi NNW 5.8 mph - N/A   Mostly Cloudy
2:55 PM 36.7 °F 31.2 °F 32.0 °F 83% 29.74 in 10.0 mi NNW 6.9 mph - N/A   Overcast
3:15 PM 36.0 °F 30.3 °F 31.8 °F 85% 29.74 in 10.0 mi NNW 6.9 mph - N/A   Overcast
3:35 PM 36.0 °F 30.3 °F 31.8 °F 85% 29.74 in 10.0 mi North 6.9 mph - N/A   Overcast
3:55 PM 35.4 °F 30.5 °F 31.8 °F 87% 29.74 in 10.0 mi North 5.8 mph - N/A   Overcast
4:15 PM 35.1 °F 30.1 °F 31.5 °F 87% 29.75 in 10.0 mi North 5.8 mph - N/A   Overcast
4:35 PM 35.1 °F 28.6 °F 31.5 °F 87% 29.76 in 10.0 mi North 8.1 mph - N/A   Overcast
4:55 PM 34.9 °F 30.8 °F 31.1 °F 86% 29.76 in 10.0 mi North 4.6 mph - N/A   Overcast
5:15 PM 34.9 °F - 31.1 °F 86% 29.77 in 10.0 mi Calm Calm - N/A   Overcast
5:35 PM 34.9 °F - 30.9 °F 85% 29.78 in 10.0 mi Calm Calm - N/A   Overcast
5:55 PM 34.7 °F - 30.9 °F 86% 29.78 in 10.0 mi Calm Calm - N/A   Overcast
6:15 PM 34.7 °F - 31.1 °F 87% 29.79 in 10.0 mi Calm Calm - N/A   Overcast
6:35 PM 34.7 °F 30.6 °F 31.3 °F 87% 29.78 in 10.0 mi NNE 4.6 mph - N/A   Overcast
6:55 PM 33.4 °F 30.4 °F 30.9 °F 90% 29.78 in 10.0 mi East 3.5 mph - N/A   Overcast
7:15 PM 32.2 °F - 30.0 °F 92% 29.78 in 10.0 mi Calm Calm - N/A   Mostly Cloudy
7:35 PM 32.4 °F - 30.6 °F 93% 29.78 in 10.0 mi Calm Calm - N/A   Mostly Cloudy
7:55 PM 32.5 °F - 30.7 °F 93% 29.79 in 10.0 mi Calm Calm - N/A   Overcast
8:15 PM 31.8 °F - 30.0 °F 93% 29.80 in 10.0 mi Calm Calm - N/A   Mostly Cloudy
8:35 PM 30.9 °F - 29.5 °F 94% 29.80 in 7.0 mi Calm Calm - N/A   Scattered Clouds
8:55 PM 30.7 °F - 29.5 °F 95% 29.79 in 7.0 mi Calm Calm - N/A   Clear
9:15 PM 30.4 °F - 29.3 °F 96% 29.80 in 7.0 mi Calm Calm - N/A   Clear
9:35 PM 29.8 °F - 28.9 °F 96% 29.80 in 7.0 mi Calm Calm - N/A   Clear
9:55 PM 29.7 °F - 28.8 °F 96% 29.79 in 7.0 mi Calm Calm - N/A   Clear
10:15 PM 28.2 °F 24.4 °F 27.1 °F 96% 29.79 in 7.0 mi South 3.5 mph - N/A   Clear
10:35 PM 28.4 °F 24.6 °F 27.3 °F 96% 29.80 in 7.0 mi South 3.5 mph - N/A   Clear
10:55 PM 28.6 °F - 27.5 °F 96% 29.80 in 7.0 mi Calm Calm - N/A   Clear
11:15 PM 28.6 °F - 27.5 °F 96% 29.80 in 7.0 mi Calm Calm - N/A   Clear
11:35 PM 28.6 °F - 27.7 °F 96% 29.81 in 7.0 mi Calm Calm - N/A   Clear
11:55 PM 28.4 °F - 27.5 °F 96% 29.81 in 7.0 mi Calm Calm - N/A   Clear